Location: Mauna Kea VIS
(19.7591°N, 155.4561°W)
Time: 15:57:19
(UTC-10:00)

Hubble Space Telescope - Pass Details

Date: 18 December 2025
Orbit: 479 x 481 km, 28.5° (Epoch: 16 January)

Event Time Altitude Azimuth Distance (km) Brightness Sun altitude
Rises 19:08:41 0° 290° (WNW) 2,522 5.0 -18.7°
Reaches altitude 10° 19:10:54 10° 288° (WNW) 1,643 4.0 -19.2°
Maximum altitude 19:14:39 70° 204° (SSW) 508 0.7 -20.0°
Enters shadow 19:15:32 48° 138° (SE) 627 0.9 -20.2°
